Wind_Speed
17 20 21 22 24 25 26 26 27 29 30 31 32 34 36 40 43 44 44 44 45 44 42 41 41 41 41 41 41 41 40 38 37 36 34 33 31 31 32 32 32 30 30 30
17 18 20 21 22 23 23 22 23 24 26 27 30 32 35 39 42 45 47 48 48 47 43 41 41 42 41 41 42 42 41 40 39 38 36 34 33 33 33 33 33 33 33 32
15 16 16 18 18 19 20 20 20 21 24 26 29 32 34 38 41 44 46 47 48 48 46 43 42 42 42 42 42 41 40 40 39 38 36 35 34 33 32 32 31 32 32 30
12 15 16 17 18 18 20 21 22 24 25 27 29 32 33 35 38 41 44 45 46 47 45 43 42 42 41 41 41 41 40 40 39 38 36 34 33 31 31 30 31 31 31 30
12 15 16 17 17 17 18 20 22 23 24 26 28 31 31 32 33 35 39 42 42 43 43 42 41 41 40 40 40 40 39 39 38 37 35 33 31 30 29 29 29 30 30 32
12 14 15 16 15 16 17 19 19 19 20 22 24 26 26 26 27 28 31 34 38 38 37 37 37 37 37 38 38 38 38 37 37 36 35 33 31 30 29 28 29 29 31 32
11 13 14 15 16 16 16 17 17 17 18 18 19 20 22 23 24 24 25 26 29 33 33 32 32 32 33 34 35 36 36 36 36 35 35 34 33 32 31 31 31 32 32 34
12 13 15 16 15 14 15 14 14 14 15 15 17 18 19 20 21 21 21 21 22 24 26 27 27 28 29 31 33 35 36 36 36 36 36 36 36 35 35 35 36 36 35 34
14 15 16 15 13 13 13 13 13 13 14 14 14 16 17 19 19 18 17 18 17 14 14 16 18 20 23 27 30 32 34 36 37 37 37 37 38 39 39 40 40 39 37 35
15 15 15 15 14 14 13 13 13 14 14 14 13 14 14 16 17 17 17 17 15 13 9 7 9 12 16 20 23 27 30 33 34 35 37 38 39 40 41 41 41 39 38 36
15 15 14 14 14 15 15 14 13 13 13 13 13 15 17 19 20 19 18 18 16 14 11 6 3 6 9 12 14 17 21 25 28 30 32 34 35 36 36 36 35 34 33 32
17 16 16 16 17 18 17 16 15 15 14 14 14 17 20 20 20 21 21 20 19 17 15 13 10 6 2 1 2 4 7 10 14 17 19 21 22 23 24 25 25 26 26 27
21 19 18 18 20 19 18 18 19 18 17 15 17 19 21 21 21 21 21 22 22 22 21 20 19 17 13 11 9 7 6 4 2 3 5 7 9 11 12 14 15 17 18 19
22 21 21 20 20 20 20 20 21 22 21 20 20 21 21 21 21 21 21 21 20 20 19 20 19 20 20 19 17 16 15 14 13 12 10 8 6 5 5 5 6 7 7 8
23 22 21 20 20 21 22 22 23 23 22 23 23 22 21 20 21 21 21 21 20 20 20 19 19 19 19 19 18 18 18 18 17 16 15 14 12 11 10 9 9 9 9 9
24 22 21 20 20 22 23 23 23 23 22 22 22 21 21 20 20 21 21 21 20 20 20 19 19 19 19 18 18 18 17 17 16 16 15 14 13 13 12 12 11 11 12 12
24 23 21 19 20 21 23 23 23 22 22 21 21 20 20 20 20 19 19 19 19 19 18 18 18 18 19 19 19 19 19 19 18 17 17 16 16 15 15 14 14 14 14 14
24 23 22 21 21 22 22 22 22 22 21 20 19 19 19 20 19 19 20 20 19 19 18 18 18 18 19 19 19 19 19 19 19 19 18 18 18 17 17 17 17 16 16 17
23 23 23 22 22 22 22 21 21 20 19 19 18 18 18 19 19 20 20 21 20 20 19 19 19 19 20 19 19 19 19 19 19 19 19 19 19 19 18 18 18 18 18 18
20 21 23 23 22 22 21 21 21 20 19 19 19 19 18 18 19 20 20 20 20 20 20 19 19 19 19 18 17 18 18 18 19 19 20 21 21 21 21 20 20 18 18 18
15 17 19 20 21 22 22 21 21 20 20 19 19 19 19 19 20 20 20 20 20 19 19 19 19 18 18 17 17 17 17 18 18 20 21 22 23 23 23 22 21 20 19 19
10 12 14 16 18 19 20 20 20 20 21 20 20 20 20 20 20 20 19 19 18 18 17 17 17 17 17 17 17 18 18 18 18 20 21 22 23 24 25 25 24 22 22 21
6 8 10 12 14 15 17 18 19 20 20 21 21 21 21 21 20 19 18 17 16 16 16 16 16 16 17 17 18 18 18 17 18 19 20 22 23 24 25 25 25 25 24 24
5 5 6 8 9 11 13 15 17 18 19 20 21 22 22 22 21 19 18 16 15 14 14 14 15 15 16 17 17 18 18 17 18 18 19 21 22 24 25 25 25 25 26 26
6 5 5 6 7 8 9 11 13 15 17 18 19 20 21 22 22 20 19 17 14 13 12 12 13 13 14 15 16 17 18 18 17 18 18 20 21 22 23 24 25 25 26 26
7 7 7 8 8 8 8 8 9 11 13 15 17 18 20 21 22 22 20 17 15 13 11 10 10 11 12 13 15 16 17 17 17 17 18 18 19 20 22 23 24 25 25 26
Wind_Direction
278 281 283 283 282 282 281 280 279 280 280 279 277 275 272 271 271 271 269 266 264 264 265 266 266 265 263 262 262 263 264 263 263 263 263 262 262 262 264 265 264 262 260 259
282 283 287 289 291 292 292 291 288 286 285 284 283 282 280 277 275 275 273 269 266 267 266 263 262 262 261 260 259 259 260 260 261 261 261 261 260 259 260 261 262 263 260 258
296 297 301 303 305 304 300 297 293 289 286 286 287 287 287 283 279 277 275 271 268 266 264 260 258 256 256 255 256 256 256 256 257 258 257 257 256 256 256 258 260 263 263 261
308 308 309 309 308 304 300 299 295 292 289 288 288 287 289 286 281 277 275 273 269 268 266 260 255 252 250 250 251 252 252 253 253 254 254 253 251 251 252 255 259 265 264 264
315 314 314 315 314 311 308 305 301 297 294 291 290 288 289 287 284 280 275 273 271 269 266 259 254 250 248 247 247 247 248 249 250 251 250 249 247 248 251 255 259 264 267 272
326 323 321 321 319 317 316 315 311 307 303 300 300 298 297 294 291 287 281 276 272 269 265 260 256 251 247 245 243 243 244 244 245 246 246 246 246 248 252 258 262 267 271 273
334 332 331 331 332 331 329 327 325 321 316 314 317 315 312 308 305 298 292 287 279 273 273 270 266 258 251 246 245 244 243 242 242 242 243 244 247 250 255 261 266 271 273 273
354 348 342 339 335 336 338 338 337 337 335 334 334 332 330 328 325 319 312 309 300 291 284 277 273 265 258 253 249 247 246 243 242 242 243 246 250 254 260 265 270 273 275 274
7 358 351 346 344 349 352 354 354 357 357 353 351 351 349 343 341 340 338 334 331 320 303 285 278 269 261 257 254 251 250 248 246 246 247 250 255 259 264 268 272 274 274 273
11 2 357 359 5 7 6 8 14 14 12 11 12 13 14 10 9 7 7 3 4 6 356 321 290 273 264 262 259 257 255 255 253 253 253 256 259 263 267 270 272 273 272 270
17 11 13 19 26 26 24 24 26 26 29 30 33 37 31 29 26 25 25 25 30 28 31 27 342 293 276 270 264 261 260 259 258 257 260 262 264 266 268 270 270 271 269 267
30 28 30 37 39 36 36 37 40 41 41 41 44 47 42 40 39 40 40 42 46 45 46 51 49 46 37 287 275 270 269 264 261 262 264 265 266 268 269 270 269 268 267 268
40 40 42 46 45 42 42 45 49 50 46 49 51 54 51 50 48 49 49 49 52 51 50 51 51 54 61 67 70 74 65 54 11 294 280 277 277 277 277 276 273 270 271 271
45 46 48 49 49 47 46 49 53 54 53 55 55 55 53 52 53 52 50 49 48 45 46 48 50 52 56 61 64 66 66 66 65 61 57 49 32 11 352 333 315 307 298 292
48 48 50 52 52 51 50 52 55 56 55 56 55 54 53 52 52 51 50 48 47 46 46 46 46 47 48 51 53 54 55 55 54 53 52 48 43 38 28 17 5 354 342 329
49 50 51 53 53 53 53 53 55 56 56 56 55 53 51 49 48 48 48 47 46 46 46 45 44 45 47 48 50 52 53 53 53 52 50 46 39 32 24 15 5 355 345 336
50 51 52 54 53 54 53 52 53 55 54 52 52 50 47 44 44 44 44 43 42 42 44 45 44 45 47 49 52 54 55 54 51 48 44 39 33 27 20 13 4 355 345 337
49 52 53 53 53 55 54 52 52 53 53 50 49 47 45 43 42 43 42 41 41 42 46 49 52 53 53 53 54 54 52 50 48 45 41 35 28 21 13 5 357 349 341 333
48 49 51 51 52 54 54 53 52 52 53 48 45 45 44 43 42 43 43 44 45 47 50 53 56 57 57 56 55 55 53 49 45 40 35 30 24 17 11 4 357 351 344 337
45 46 47 47 48 50 50 50 50 50 52 47 44 43 43 42 43 44 44 45 46 48 50 52 54 54 54 54 53 51 48 44 40 36 32 27 22 19 15 10 6 3 358 352
39 42 43 43 44 45 45 46 46 46 45 44 41 40 39 39 40 41 42 43 45 46 49 51 51 52 51 48 44 41 39 37 35 33 30 25 22 20 17 15 12 10 9 6
28 35 39 40 41 40 38 40 40 40 39 37 35 34 34 34 35 36 38 40 42 44 46 47 48 49 47 45 40 36 34 34 34 33 30 26 24 23 22 22 21 21 20 18
7 23 31 34 37 36 35 36 36 36 35 33 31 29 28 28 29 30 32 34 36 39 41 43 44 46 45 42 39 37 35 34 34 32 29 26 25 25 25 26 27 28 28 29
332 356 12 19 25 26 27 28 29 30 29 30 29 28 27 27 27 26 26 27 29 31 35 38 40 42 42 41 40 39 38 36 34 32 30 27 27 27 27 28 29 31 33 34
288 300 322 342 357 4 8 14 19 21 22 24 24 25 25 24 24 23 22 23 23 24 27 32 36 39 40 40 40 40 40 37 35 33 31 29 27 27 27 29 31 32 34 36
272 281 294 307 320 328 337 347 357 4 10 14 16 18 19 20 20 20 20 19 19 20 22 28 32 35 37 37 38 39 39 39 38 36 32 29 28 27 27 29 31 33 34 36
Height
5896 5895 5892 5891 5889 5887 5886 5884 5882 5879 5877 5876 5873 5871 5869 5866 5863 5862 5861 5861 5862 5863 5864 5865 5865 5865 5865 5866 5867 5868 5869 5871 5873 5875 5876 5878 5878 5878 5878 5878 5878 5878 5878 5878
5893 5890 5887 5885 5883 5881 5879 5878 5876 5873 5870 5868 5865 5862 5860 5856 5854 5852 5851 5851 5851 5851 5852 5853 5853 5853 5854 5855 5856 5857 5858 5860 5862 5864 5866 5868 5869 5869 5870 5870 5869 5869 5869 5869
5887 5885 5882 5880 5878 5875 5873 5871 5869 5867 5864 5861 5858 5854 5850 5846 5844 5841 5839 5838 5837 5837 5838 5839 5840 5841 5843 5844 5845 5846 5848 5849 5851 5853 5855 5857 5859 5860 5860 5860 5859 5859 5859 5860
5883 5881 5878 5876 5873 5871 5868 5866 5863 5861 5858 5855 5852 5847 5842 5837 5834 5831 5828 5826 5824 5824 5824 5825 5827 5829 5830 5832 5834 5836 5837 5839 5841 5843 5845 5847 5849 5850 5851 5851 5851 5850 5849 5850
5880 5877 5874 5872 5869 5866 5863 5860 5857 5854 5851 5848 5844 5839 5835 5830 5825 5822 5818 5816 5813 5812 5812 5813 5815 5817 5819 5821 5823 5826 5828 5830 5832 5834 5837 5839 5841 5842 5843 5844 5844 5842 5840 5839
5877 5874 5871 5868 5865 5862 5859 5855 5852 5848 5845 5841 5837 5832 5827 5822 5818 5814 5810 5806 5803 5802 5800 5801 5804 5806 5808 5811 5813 5816 5819 5821 5823 5826 5829 5831 5833 5835 5836 5836 5836 5835 5834 5833
5875 5872 5869 5865 5861 5858 5855 5852 5848 5843 5839 5835 5831 5826 5822 5816 5812 5807 5803 5799 5795 5793 5791 5792 5794 5797 5799 5802 5805 5808 5811 5813 5816 5818 5821 5823 5825 5827 5828 5829 5829 5829 5828 5827
5873 5870 5866 5862 5859 5855 5852 5849 5846 5841 5836 5832 5827 5822 5819 5813 5807 5802 5798 5793 5789 5786 5784 5785 5786 5789 5792 5795 5799 5801 5804 5806 5808 5811 5813 5815 5817 5819 5820 5821 5821 5821 5821 5820
5871 5868 5864 5860 5857 5853 5849 5845 5842 5839 5834 5830 5826 5821 5816 5811 5806 5801 5796 5791 5786 5783 5780 5780 5782 5784 5786 5789 5792 5794 5797 5799 5801 5804 5806 5808 5810 5811 5811 5812 5812 5812 5812 5812
5870 5867 5863 5859 5855 5851 5848 5844 5841 5837 5833 5829 5825 5821 5817 5812 5806 5801 5796 5791 5786 5783 5780 5779 5779 5780 5782 5784 5786 5788 5790 5793 5795 5797 5800 5801 5802 5803 5803 5803 5803 5803 5803 5803
5870 5867 5863 5859 5855 5851 5847 5844 5840 5837 5833 5830 5826 5824 5817 5812 5807 5803 5798 5793 5789 5785 5782 5780 5780 5780 5780 5781 5782 5783 5785 5787 5789 5791 5793 5794 5794 5795 5794 5794 5794 5794 5794 5794
5871 5867 5863 5859 5855 5851 5848 5845 5841 5838 5835 5831 5828 5827 5819 5815 5811 5807 5802 5798 5794 5791 5788 5786 5784 5782 5781 5781 5781 5782 5782 5784 5785 5786 5787 5788 5788 5788 5787 5787 5787 5787 5787 5787
5872 5868 5865 5861 5859 5855 5850 5846 5843 5840 5837 5833 5830 5829 5823 5819 5815 5811 5808 5804 5801 5798 5795 5792 5789 5787 5784 5783 5783 5782 5783 5783 5784 5784 5784 5784 5784 5784 5784 5783 5783 5782 5782 5782
5873 5870 5867 5865 5860 5857 5853 5849 5846 5843 5840 5837 5833 5830 5827 5824 5820 5817 5813 5810 5806 5803 5801 5798 5795 5793 5790 5789 5787 5787 5786 5785 5785 5785 5785 5784 5784 5784 5783 5782 5781 5780 5779 5779
5876 5873 5869 5867 5863 5860 5857 5853 5849 5847 5844 5841 5838 5835 5832 5829 5826 5822 5818 5815 5811 5808 5805 5803 5800 5798 5796 5794 5793 5792 5791 5790 5789 5789 5788 5787 5786 5785 5784 5783 5781 5779 5778 5777
5880 5876 5873 5871 5867 5864 5861 5857 5854 5851 5848 5846 5843 5840 5837 5834 5830 5826 5823 5819 5816 5813 5810 5807 5805 5803 5801 5799 5797 5796 5795 5793 5792 5791 5790 5789 5788 5786 5784 5783 5781 5778 5776 5775
5884 5880 5878 5875 5871 5868 5865 5861 5858 5855 5852 5850 5847 5845 5841 5838 5835 5831 5827 5824 5820 5817 5814 5812 5810 5807 5805 5803 5801 5800 5799 5797 5796 5794 5793 5791 5789 5787 5784 5782 5779 5777 5774 5772
5888 5884 5881 5878 5875 5871 5870 5865 5862 5859 5856 5853 5851 5848 5845 5842 5839 5835 5831 5827 5824 5821 5818 5816 5814 5812 5810 5808 5806 5804 5802 5801 5799 5797 5795 5793 5791 5788 5785 5782 5778 5775 5772 5769
5891 5888 5885 5881 5878 5874 5871 5868 5865 5862 5860 5857 5855 5851 5848 5845 5842 5838 5835 5831 5828 5825 5822 5820 5818 5816 5814 5812 5810 5808 5806 5805 5803 5800 5798 5795 5792 5789 5785 5781 5777 5773 5769 5766
5894 5891 5888 5884 5881 5878 5876 5872 5868 5866 5863 5860 5858 5855 5852 5849 5846 5842 5838 5835 5832 5829 5826 5824 5822 5820 5818 5817 5815 5813 5810 5808 5806 5803 5801 5797 5794 5790 5786 5782 5777 5772 5768 5763
5896 5893 5890 5887 5884 5881 5878 5874 5871 5870 5868 5863 5860 5857 5854 5851 5849 5845 5842 5838 5835 5833 5830 5828 5826 5824 5822 5820 5818 5816 5813 5811 5808 5806 5802 5799 5795 5791 5786 5782 5777 5772 5767 5762
5897 5895 5892 5889 5887 5886 5881 5877 5875 5872 5868 5865 5862 5860 5857 5854 5850 5847 5844 5842 5839 5836 5834 5832 5830 5828 5826 5823 5821 5819 5816 5814 5811 5808 5805 5801 5797 5793 5788 5783 5778 5773 5768 5763
5897 5896 5893 5892 5891 5887 5883 5880 5877 5874 5871 5867 5864 5861 5858 5855 5852 5850 5847 5844 5841 5839 5837 5834 5832 5830 5828 5826 5824 5822 5819 5816 5813 5810 5807 5804 5799 5795 5790 5786 5781 5776 5771 5766
5896 5894 5893 5891 5889 5887 5885 5882 5879 5876 5873 5870 5867 5864 5860 5857 5854 5851 5849 5846 5843 5841 5839 5837 5835 5833 5831 5829 5827 5824 5822 5819 5816 5813 5810 5806 5802 5798 5793 5789 5784 5780 5775 5770
5895 5893 5892 5890 5889 5887 5885 5883 5880 5877 5874 5871 5869 5866 5862 5859 5856 5853 5850 5847 5845 5843 5840 5838 5836 5835 5833 5831 5829 5827 5824 5821 5818 5815 5812 5809 5805 5801 5797 5792 5788 5783 5779 5774
5892 5891 5890 5889 5888 5886 5885 5883 5880 5878 5876 5873 5870 5867 5864 5861 5858 5854 5851 5848 5846 5843 5841 5840 5838 5837 5835 5833 5831 5829 5826 5824 5821 5817 5814 5811 5808 5804 5800 5796 5792 5787 5783 5778